Location: Recife
(8.0585°S, 34.8848°W)
Time: 10:50:15
(UTC-03:00)

Transit 2A Rocket - Pass Details

Date: 20 April 2026
Orbit: 587 x 895 km, 66.7° (Epoch: 14 May)

Event Time Altitude Azimuth Distance (km) Brightness Sun altitude
Rises 10:34:41 0° 353° (N) 2,814 8.2 67.5°
Reaches altitude 10° 10:37:01 10° 0° (N) 1,904 7.5 67.8°
Maximum altitude 10:41:00 41° 71° (ENE) 857 6.3 68.2°
Drops below altitude 10° 10:45:03 10° 141° (SE) 1,933 7.1 68.6°
Sets 10:47:25 0° 148° (SSE) 2,862 7.8 68.8°
